loading
DOY 198 | 2024-07-16T12:46:59Z

THOR ABLESTAR DEB, 1099

Orbit data source: Space-Track

THOR ABLESTAR DEB, 1099 is space debris in LEO originally from a launch on Sun, 13 Dec 1964 UTC launched from the Air Force Western Test Range (AFWTR). Debris objects in space refer to the collection of defunct objects orbiting the Earth. Examples of debris include non-operational satellites, rocket bodies, and fragments generated from explosions, collisions, or faulty payload assembly.

Loading next visibility...
Loading greatness...
THOR ABLESTAR DEB details
NORAD ID1099
COSPAR ID
1964-083G
Orbit
LEO
Last TLE update15 hours ago
Origin
Flag of USUSN BuWeps (US)
ManufacturerUnknown
BusUnknown
MotorUnknown
MassWet unknown, Dry mass unknown
Launch date (UTC)
1964-12-13 (60 years ago)
Launch vehicleUnknown
Launch site
Air Force Western Test Range (AFWTR)
Object type
Payload
Rocket body
Debris
Radar Cross Section0.55 m², Medium (>0.1 m² and < 1m²)
Predictive object data (real-time)
Latitude-66.19704°
Longitude-107.61124°
Altitude1,059.236 km
Speed7.318 km/s
Apparent Right ascension12h 09m 03s
Apparent Declination-56° 33' 46"
Sunlit
Object is in daylight
Predictive observer data (real-time)
Local Sidereal Time01:25:55
Azimuth149.36° SSE
Elevation-69.154°
Doppler factor1
Orbital elements
Apogee1,052.9 km
Perigee994.834 km
Semi-major axis7,402.004 km
Eccentricity0.0039223
Inclination89.8516°
RAAN150.2067°
Arg. of periapsis191.3028°
True anomaly230.61118°
Mean anomaly230.9592°
Mean motion3.40815 °/min
BSTAR0.00033011
Period105.63 mins
Definitive object data (Epoch: 2024-07-15T21:32:59.762Z)
Latitude62.00094°
Longitude-106.98917°
Altitude1,055.912 km
Speed7.321 km/s
True Right ascension10h 01m 56s
True Declination61° 51' 50"
Sunlit
Object was in daylight at TLE epoch
TLE from 15 hours ago
0 THOR ABLESTAR DEB
1 01099U 64083G   24197.89791392  .00000267  00000-0  33011-3 0  9997
2 01099  89.8516 150.2067 0039223 191.3028 230.9592 13.62440582886908
Epoch: 2024-07-15T21:32Z
No data available

THOR ABLESTAR DEB Visibility forecast

Observer location: 39.9160978°, -105.1181434

THOR ABLESTAR DEB is not visible in the next 10 days
Span
Click to sort rows by Start time (UTC) header in descending order
Start Az.
Max El. time (UTC)
Max El. Az.
Max El.
End time (UTC)
End Az.